Regional Weather Roundup
Issued by NWS Wakefield, VA

Home | Current Version | Previous Version | Text Only | Print | Product List | Glossary Off
Versions: 1 2 3 4 5 6 7 8 9 10 11 12 13 14 15 16 17 18 19 20 21 22 23 24 25 26 27 28 29 30 31 32 33 34 35 36 37 38 39 40 41 42 43 44 45 46 47 48 49 50

000
ASUS41 KAKQ 300015
RWRAKQ

REGIONAL WEATHER ROUNDUP
NATIONAL WEATHER SERVICE WAKEFIELD VA
800 PM EDT MON JUN 29 2015

Note: "fair" indicates few or no clouds below 12,000 feet with no
significant weather and/or obstructions to visibility. * = Denotes
station may not report precipitation (e.g., rain,snow,etc.),
thunder or fog.

VAZ042-051-052>054-056-300100-
NORTHERN VIRGINIA

CITY           SKY/WX    TMP DP  RH WIND       PRES   REMARKS
WASH NATIONAL  PTCLDY    77  62  59 S8        29.93S
DULLES         PTCLDY    76  56  49 S7        29.93R
FORT BELVOIR   CLEAR     76  60  58 S2        29.93S HAZE
QUANTICO       CLEAR     80  58  46 SW5       29.93S
FREDERICKSBRG* CLEAR     80  63  56 S3        29.93R
STAFFORD*      CLEAR     74  58  56 S3        29.97S
WARRENTON      CLEAR     76  65  68 CALM      29.93R
CULPEPER*      CLEAR     75  60  60 CALM      29.94R
MANASSAS*      CLEAR     75  63  64 SE5         N/A
LEESBURG*      PTCLDY    79  61  53 S13       29.94R
WINCHESTER     PTCLDY    75  59  57 S7        29.93R
FRONT ROYAL*   MOCLDY    72  59  64 SW3       29.92R
LURAY*         CLOUDY    77  63  61 CALM      29.94R
$$

VAZ048-049-060>072-079>083-300100-
CENTRAL AND SOUTH CENTRAL VIRGINIA

CITY           SKY/WX    TMP DP  RH WIND       PRES   REMARKS
RICHMOND       PTCLDY    80  63  55 S3        29.94R
CHESTERFIELD*  NOT AVBL
PETERSBURG*    CLEAR     77  74  88 CALM      29.95R
HANOVER        CLEAR     78  61  55 VRB5      29.95R
TAPPAHANNOCK*  CLEAR     76  64  67 CALM      29.95S
QUINTON*       FAIR      80  65  59 CALM      29.94R
CHARLOTTSVILLE MOCLDY    74  59  59 S5        29.94R
GORDONSVILLE*  FAIR      73  64  73 CALM      29.94R
ORANGE*        PTCLDY    75  61  60 CALM      29.96R
LOUISA*        CLEAR     75  66  73 CALM      29.93S
BUMPASS*       FAIR      77  63  63 CALM      29.94S
FARMVILLE*     PTCLDY    76  64  67 CALM      29.93R
CREWE*         FAIR      75  68  79 CALM      29.94R
FORT PICKETT*  FAIR      78  65  65 CALM      29.94S
CHASE CITY*    FAIR      81  70  67 CALM      29.95R
CLARKSVILLE*   FAIR      77  70  78 CALM      29.94R
SOUTH HILL*    PTCLDY    78  66  67 CALM      30.00R
LAWRENCEVILLE* NOT AVBL
EMPORIA*       PTCLDY    77  68  73 CALM      29.95R
$$

VAZ088>098-300100-
SOUTHEAST VIRGINIA

CITY           SKY/WX    TMP DP  RH WIND       PRES   REMARKS
NORFOLK        CLEAR     78  63  59 SE9       29.95R
VIRGINIA BEACH PTCLDY    78  64  61 SE6       29.95S
NORFOLK NAVAL  PTCLDY    77  64  64 SE7       29.96R
WEST POINT*    CLEAR     80  60  51 E6        29.96R
SALUDA*        FAIR      77  63  60 S6        29.95R
NEWPORT NEWS   CLEAR     76  65  68 E6        29.95S
LANGLEY AFB    CLEAR     78  67  68 SE10      29.93S
FORT EUSTIS    CLEAR     79  63  57 SE7       29.93S
WILLIAMSBURG*  CLEAR     79  68  69 SE5       29.96R
HR EXEC AP*    FAIR      77  66  69 SE6       29.97S
FRANKLIN*      PTCLDY    79  68  68 SE5       29.95R
WAKEFIELD      CLEAR     79  69  71 E7        29.94S
$$

VAZ020-022-025-037-045-300100-
WEST CENTRAL AND SOUTHWEST VIRGINIA

CITY           SKY/WX    TMP DP  RH WIND       PRES   REMARKS
STAUNTON*      CLOUDY    76  60  57 S3        29.97R
WAYNESBORO*    MOCLDY    73  58  60 S3        29.97R
HOT SPRINGS VA CLOUDY    64  57  78 S7        30.04S
LYNCHBURG      CLEAR     73  62  68 S5        29.96R
DANVILLE       MOCLDY    76  67  73 CALM      29.94R
SOUTH BOSTON*  MOCLDY    78  66  66 MISG      29.94R
MARTINSVILLE   PTCLDY    77  69  77 CALM      29.97S
ROANOKE        MOCLDY    77  57  50 S6        29.98R
BLACKSBURG     PTCLDY    73  58  59 CALM      30.02S
DUBLIN*        PTCLDY    74  58  58 S5        30.00S
MARION*        MOCLDY    72  58  61 CALM      30.02S
HILLSVILLE*    MOCLDY    69  58  67 S5        30.05R
RICHLANDS*     MOCLDY    69  61  77 S7        29.98F
WISE*          MOCLDY    70  59  68 S5        29.98S
ABINGDON*      PTCLDY    77  61  56 SW8       29.96F
$$

MDZ021>025-VAZ099-100-300100-
SOUTHERN MARYLAND AND THE DELMARVA PENINSULA

CITY           SKY/WX    TMP DP  RH WIND       PRES   REMARKS
PATUXENT RIVER PTCLDY    76  61  59 SE5       29.94S
BAY BRIDGE APT   N/A     77  55  47 S5        29.94R
LEONARDTOWN    CLEAR     73  59  60 CALM      29.96S
DOVER          CLEAR     77  61  57 SW6       29.93R
GEORGETOWN     CLEAR     75  58  55 SW5       29.96R
EASTON         PTCLDY    79  59  50 S7        29.98S
CAMBRIDGE      CLEAR     77  55  47 CALM      29.95R
SALISBURY      CLEAR     75  60  59 S3        29.96R
OCEAN CITY     CLEAR     74  64  71 S6        29.96S
WALLOPS ISLAND CLEAR     74  63  68 S8        29.97R
ACCOMACK*      CLEAR     75  63  64 S6        29.96S
$$

NCZ012>017-030>032-300100-
NORTH CENTRAL AND EASTERN NORTH CAROLINA

CITY           SKY/WX    TMP DP  RH WIND       PRES   REMARKS
ROANOKE RAPIDS FAIR      77  70  78 CALM      29.93S
RALEIGH        PTCLDY    82  63  52 S5        29.94R
ELIZABETH CITY PTCLDY    78  69  73 SE9       29.95S
AHOSKIE*       PTCLDY    76  69  80 CALM      29.94S
EDENTON*         N/A     81  66  60 SE7       29.95R
CURRITUCK*     PTCLDY    78  65  64 SE3       29.97S
KILL DEVIL HLS PTCLDY    79  67  67 SE3       29.96R
MANTEO         PTCLDY    77  69  76 SE7       29.97R
CAPE HATTERAS  MOCLDY    79  71  76 CALM      29.96S
TARBORO*         N/A     82  68  60 SE5       29.94S
GOLDSBORO      PTCLDY    83  69  63 SE3       29.92R
WASHINGTON     CLEAR     81  64  55 SE5       29.95R
GREENVILLE     MOCLDY    82  68  61 S8        29.96R
NEW BERN       PTCLDY    80  69  69 S5        29.96R
WILMINGTON     MOCLDY    81  69  67 S7        29.95R
$$

VAZ048-300100-
ELSEWHERE

CITY           SKY/WX    TMP DP  RH WIND       PRES   REMARKS
HARRISBURG PA  MOCLDY    75  60  59 SW6       29.90S
BALTIMORE      PTCLDY    77  52  41 S3        29.92R
ANNAPOLIS      CLEAR     77  53  43 S5        29.93R
ANDREWS AFB    CLEAR     76  60  57 S7        29.93S
PHILADELPHIA   PTCLDY    79  57  46 S7        29.92S
HENDERSON NC   PTCLDY    80  61  52 SE3       29.95R
GREENSBORO     PTCLDY    81  56  42 S7        29.95R
ROCKY MOUNT    PTCLDY    83  67  58 S7        29.93R
$$

VAZ100-300100-
MARINE

STATION/POSITION TIME  TEMP    WIND        PRES    WAVE   SWELL
                       AIR SEA DIR/SP/G            HT/PER HT/PER
                 (UTC) (F)     (DEG/KT/KT) (MB)    (FT/S) (FT/S)
BRANDYWINE LGT   2300   77 72  250/  9/ 10 1014.1S
CAPE MAY NJ      2300   76 78  130/  4/  6 1013.8S
LEWES DE         2300   79 73  280/ 11/ 12 1013.9R
15NM E FENWICK I 2350   74 72              1014.2R   4/ 9
OCEAN-CITY-INLET 2300   74 73  220/ 11/ 12 1014.2R
WACHAPREAGUE VA  2300   77 81  180/  6/  8 1014.5S
GOOSES REEF MD   0000   78 78  170/ 12/ 16 1015.0R
COVE POINT MD    2300   76     180/ 12/ 14 1014.5F
SOLOMONS ISLAND  2300      80                N/A
BISHOPS HEAD MD  2300   78     130/  6/  9 1013.9F
PINEY POINT MD   2300          160/  2/  4   N/A
CAMBRIDGE MD     2300   79 79  180/  5/  9 1013.8F
LEWISETTA VA     2300   81 81  210/  6/  8 1013.4F
RAPPAHANNOCK LGT 2300          130/  7/  8 1014.7F
STINGRAY PT      0000   79 81  170/ 12/ 14 1014.2R
YORK RVR RNG VA  2300   77     150/ 15/ 16 1013.5F
YORKTOWN VA      2300   79 80  120/ 10/ 13 1013.8R
JAMESTOWN VA     0000   80 83  110/  8/ 12   N/A
DOMINION TERM VA 2300   78      70/  9/ 11 1013.7F
KIPTOPEKE VA     2300      85  140/ 11/ 13   N/A
CHES BAY BRIDGE  2300   78 77  110/  7/ 13 1013.8S
CAPE HENRY VA    2300   77     140/ 10/ 14 1012.7F
CHESAPEAKE LGHT  2300   76     130/ 10/ 11 1015.1S
WILLOUBY STN VA  2300   80     160/ 10/ 13 1014.6F
CAPE HENRY BUOY  2328      77                N/A     3/ 8
1ST LANDING BUOY 0000      78              1014.0R   2/ 3
CAPE CHARLES BUO 2326      77                N/A     2/11   2/11
OFFSHORE WE BUOY 2311      78                N/A     3/ 8   3/ 8
64NM E OF VA BCH 2350   77 77  100/  8/ 10 1014.5S   3/ 8   3/ 8
DUCK PIER NC     2300   78 68  120/ 11/ 12 1013.5F
44100 DUCK FRF   2324      76                N/A     2/ 8
44056 DUCK FRF   2311      74                N/A     2/ 8
OREGON INLET NC  2300   76 80   70/  5/  8 1014.5R
HATTERAS NC      2300   80 81  160/  2/  4 1014.1R
DIAMOND SHLS NC  2350   79 81  270/  6/  8 1014.3R   4/ 6   3/ 6
CAPE LOOKOUT NC  0000   80     220/ 11/ 13 1014.2R
$$


USA.gov is the U.S. government's official web portal to all federal, state and local government web resources and services.